Location: ??????????
(42.1626°N, 44.1160°E)
Time: 11:02:36
(UTC+00:00)

Lacrosse 4 Rocket - Pass Details

Date: 03 March 2021
Orbit: 537 x 620 km, 68.0° (Epoch: 20 April)

Event Time Altitude Azimuth Distance (km) Brightness Sun altitude
Rises 15:55:56 0° 168° (SSE) 2,803 4.8 -11.9°
Reaches altitude 10° 15:58:41 10° 149° (SSE) 1,925 3.8 -12.4°
Enters shadow 16:01:19 18° 112° (ESE) 1,487 2.9 -12.9°
